• în România
  • Lista ţărilor
  • Pe 7 zile
  • Temperatura apei
  • Hartă satelitară
  • Meteo pe hartă
  • Widget-uri
  • user-avatar
    Intrare

    Meteo pe oră la Natitingou

    Astăzi, 23 Septembrie, Duminică

    Timp Temperatura Precipitaţii Vânt Presiune Umiditate
    00:00 +24°C° 0 mm 1 m/s 718 mmHg 89%
    01:00 +24°C° 0.2 mm 1 m/s 717 mmHg 89%
    02:00 +24°C° 0.2 mm 1 m/s 717 mmHg 90%
    03:00 +24°C° 0.2 mm 1 m/s 716 mmHg 90%
    04:00 +23°C° 0 mm 1 m/s 717 mmHg 91%
    05:00 +23°C° 0 mm 1 m/s 717 mmHg 92%
    06:00 +23°C° 0 mm 1 m/s 717 mmHg 92%
    07:00 +25°C° 0 mm 1 m/s 717 mmHg 86%
    08:00 +27°C° 0 mm 2 m/s 718 mmHg 80%
    09:00 +28°C° 0 mm 2 m/s 718 mmHg 73%
    10:00 +30°C° 0 mm 2 m/s 718 mmHg 68%
    11:00 +31°C° 0 mm 2 m/s 718 mmHg 62%
    12:00 +32°C° 0 mm 2 m/s 718 mmHg 57%
    13:00 +34°C° 0 mm 2 m/s 717 mmHg 56%
    14:00 +34°C° 0 mm 2 m/s 717 mmHg 56%
    15:00 +34°C° 0 mm 2 m/s 716 mmHg 55%
    16:00 +31°C° 0 mm 2 m/s 716 mmHg 62%
    17:00 +30°C° 0 mm 1 m/s 716 mmHg 68%
    18:00 +28°C° 0 mm 1 m/s 716 mmHg 74%
    19:00 +28°C° 0.1 mm 1 m/s 717 mmHg 77%
    20:00 +27°C° 0.1 mm 1 m/s 717 mmHg 79%
    21:00 +26°C° 0.1 mm 1 m/s 718 mmHg 82%
    22:00 +26°C° 0.3 mm 1 m/s 718 mmHg 84%
    23:00 +26°C° 0.3 mm 2 m/s 718 mmHg 86%

    Mâine, 24 Septembrie, Luni

    Timp Temperatura Precipitaţii Vânt Presiune Umiditate
    00:00 +25°C° 0.3 mm 2 m/s 718 mmHg 89%
    01:00 +25°C° 0 mm 2 m/s 717 mmHg 90%
    02:00 +25°C° 0 mm 2 m/s 716 mmHg 91%
    03:00 +24°C° 0 mm 2 m/s 716 mmHg 92%
    04:00 +24°C° 0 mm 2 m/s 716 mmHg 93%
    05:00 +24°C° 0 mm 2 m/s 716 mmHg 94%
    06:00 +24°C° 0 mm 2 m/s 716 mmHg 95%
    07:00 +25°C° 0 mm 2 m/s 717 mmHg 87%
    08:00 +27°C° 0 mm 2 m/s 718 mmHg 80%
    09:00 +29°C° 0 mm 2 m/s 719 mmHg 73%
    10:00 +30°C° 0 mm 2 m/s 719 mmHg 67%
    11:00 +32°C° 0 mm 1 m/s 718 mmHg 62%
    12:00 +33°C° 0 mm 1 m/s 718 mmHg 56%
    13:00 +33°C° 0.1 mm 1 m/s 718 mmHg 57%
    14:00 +33°C° 0.1 mm 1 m/s 717 mmHg 58%
    15:00 +33°C° 0.1 mm 1 m/s 716 mmHg 59%
    16:00 +31°C° 0.7 mm 1 m/s 716 mmHg 66%
    17:00 +29°C° 0.7 mm 1 m/s 716 mmHg 72%
    18:00 +28°C° 0.7 mm 1 m/s 716 mmHg 78%
    19:00 +27°C° 0.1 mm 1 m/s 716 mmHg 80%
    20:00 +27°C° 0.1 mm 2 m/s 717 mmHg 82%
    21:00 +26°C° 0.1 mm 2 m/s 717 mmHg 84%
    22:00 +26°C° 0 mm 2 m/s 717 mmHg 85%
    23:00 +25°C° 0 mm 2 m/s 717 mmHg 87%

    Poimâine, 25 Septembrie, Marţi

    Timp Temperatura Precipitaţii Vânt Presiune Umiditate
    00:00 +25°C° 0 mm 2 m/s 716 mmHg 88%
    01:00 +25°C° 0 mm 2 m/s 716 mmHg 89%
    02:00 +25°C° 0 mm 2 m/s 716 mmHg 90%
    03:00 +24°C° 0 mm 2 m/s 716 mmHg 91%
    04:00 +24°C° 0.1 mm 2 m/s 716 mmHg 91%
    05:00 +24°C° 0.1 mm 2 m/s 716 mmHg 92%
    06:00 +24°C° 0.1 mm 2 m/s 716 mmHg 92%
    07:00 +25°C° 0 mm 2 m/s 717 mmHg 88%
    08:00 +26°C° 0 mm 3 m/s 718 mmHg 84%
    09:00 +27°C° 0 mm 3 m/s 719 mmHg 79%
    10:00 +29°C° 0 mm 3 m/s 718 mmHg 74%
    11:00 +30°C° 0 mm 3 m/s 718 mmHg 69%
    12:00 +33°C° 0 mm 3 m/s 718 mmHg 64%
    13:00 +31°C° 0.2 mm 2 m/s 717 mmHg 65%
    14:00 +31°C° 0.2 mm 2 m/s 716 mmHg 66%
    15:00 +31°C° 0.2 mm 2 m/s 716 mmHg 68%
    16:00 +30°C° 0.5 mm 2 m/s 716 mmHg 73%
    17:00 +28°C° 0.5 mm 1 m/s 716 mmHg 79%
    18:00 +27°C° 0.5 mm 1 m/s 716 mmHg 84%
    19:00 +27°C° 1.5 mm 1 m/s 716 mmHg 86%
    20:00 +26°C° 1.5 mm 1 m/s 717 mmHg 87%
    21:00 +26°C° 1.5 mm 2 m/s 718 mmHg 89%
    22:00 +25°C° 0.5 mm 2 m/s 717 mmHg 90%
    23:00 +25°C° 0.5 mm 2 m/s 717 mmHg 91%

    26 Septembrie, Miercuri

    Timp Temperatura Precipitaţii Vânt Presiune Umiditate
    00:00 +25°C° 0.5 mm 2 m/s 717 mmHg 93%
    01:00 +25°C° 0.1 mm 2 m/s 716 mmHg 92%
    02:00 +24°C° 0.1 mm 2 m/s 716 mmHg 92%
    03:00 +24°C° 0.1 mm 2 m/s 715 mmHg 92%
    04:00 +24°C° 0.2 mm 1 m/s 716 mmHg 92%
    05:00 +24°C° 0.2 mm 1 m/s 716 mmHg 93%
    06:00 +24°C° 0.2 mm 1 m/s 716 mmHg 93%
    07:00 +25°C° 0 mm 1 m/s 717 mmHg 88%
    08:00 +26°C° 0 mm 1 m/s 717 mmHg 84%
    09:00 +27°C° 0 mm 1 m/s 718 mmHg 79%
    10:00 +29°C° 0 mm 1 m/s 718 mmHg 72%
    11:00 +30°C° 0 mm 2 m/s 717 mmHg 66%
    12:00 +32°C° 0 mm 2 m/s 717 mmHg 59%
    13:00 +32°C° 0.2 mm 2 m/s 717 mmHg 59%
    14:00 +32°C° 0.2 mm 1 m/s 716 mmHg 60%
    15:00 +32°C° 0.2 mm 1 m/s 716 mmHg 60%
    16:00 +31°C° 0.4 mm 1 m/s 716 mmHg 65%
    17:00 +29°C° 0.4 mm 1 m/s 716 mmHg 70%
    18:00 +26°C° 0.4 mm 0 m/s 716 mmHg 75%
    19:00 +25°C° 0.1 mm 0 m/s 717 mmHg 78%
    20:00 +27°C° 0.1 mm 1 m/s 717 mmHg 81%
    21:00 +26°C° 0.1 mm 1 m/s 718 mmHg 84%
    22:00 +26°C° 0.1 mm 1 m/s 717 mmHg 87%
    23:00 +25°C° 0.1 mm 1 m/s 717 mmHg 89%

    27 Septembrie, Joi

    Timp Temperatura Precipitaţii Vânt Presiune Umiditate
    00:00 +25°C° 0.1 mm 1 m/s 717 mmHg 92%
    01:00 +25°C° 0.6 mm 2 m/s 717 mmHg 92%
    02:00 +24°C° 0.6 mm 2 m/s 716 mmHg 92%
    03:00 +24°C° 0.6 mm 2 m/s 716 mmHg 93%
    04:00 +24°C° 0 mm 2 m/s 716 mmHg 93%
    05:00 +24°C° 0 mm 2 m/s 716 mmHg 93%
    06:00 +23°C° 0 mm 2 m/s 716 mmHg 93%
    07:00 +25°C° 0 mm 2 m/s 717 mmHg 87%
    08:00 +26°C° 0 mm 2 m/s 717 mmHg 81%
    09:00 +28°C° 0 mm 2 m/s 718 mmHg 75%
    10:00 +29°C° 0 mm 2 m/s 718 mmHg 69%
    11:00 +31°C° 0 mm 2 m/s 717 mmHg 63%
    12:00 +34°C° 0 mm 2 m/s 717 mmHg 56%
    13:00 +33°C° 0 mm 1 m/s 717 mmHg 55%
    14:00 +33°C° 0 mm 1 m/s 716 mmHg 54%
    15:00 +33°C° 0 mm 1 m/s 716 mmHg 53%
    16:00 +32°C° 0 mm 1 m/s 716 mmHg 59%
    17:00 +30°C° 0 mm 1 m/s 716 mmHg 64%
    18:00 +29°C° 0 mm 1 m/s 716 mmHg 70%
    19:00 +28°C° 0.1 mm 1 m/s 716 mmHg 73%
    20:00 +27°C° 0.1 mm 1 m/s 717 mmHg 76%
    21:00 +27°C° 0.1 mm 1 m/s 717 mmHg 80%
    22:00 +26°C° 0.4 mm 2 m/s 717 mmHg 83%
    23:00 +25°C° 0.4 mm 2 m/s 716 mmHg 86%

    28 Septembrie, Vineri

    Timp Temperatura Precipitaţii Vânt Presiune Umiditate
    00:00 +25°C° 0.4 mm 2 m/s 716 mmHg 90%
    01:00 +25°C° 0 mm 2 m/s 716 mmHg 90%
    02:00 +24°C° 0 mm 2 m/s 715 mmHg 90%
    03:00 +24°C° 0 mm 2 m/s 715 mmHg 91%
    04:00 +24°C° 0 mm 2 m/s 715 mmHg 91%
    05:00 +24°C° 0 mm 2 m/s 716 mmHg 92%
    06:00 +24°C° 0 mm 2 m/s 717 mmHg 92%
    07:00 +25°C° 0 mm 2 m/s 717 mmHg 87%
    08:00 +27°C° 0 mm 3 m/s 718 mmHg 81%
    09:00 +29°C° 0 mm 3 m/s 718 mmHg 75%
    10:00 +29°C° 1.2 mm 3 m/s 718 mmHg 74%
    11:00 +30°C° 1.2 mm 3 m/s 717 mmHg 73%
    12:00 +30°C° 1.2 mm 2 m/s 716 mmHg 71%
    13:00 +30°C° 3.5 mm 2 m/s 716 mmHg 75%
    14:00 +29°C° 3.5 mm 2 m/s 716 mmHg 79%
    15:00 +28°C° 3.5 mm 1 m/s 716 mmHg 83%
    16:00 +27°C° 0.5 mm 1 m/s 716 mmHg 86%
    17:00 +26°C° 0.5 mm 1 m/s 716 mmHg 88%
    18:00 +25°C° 0.5 mm 1 m/s 716 mmHg 91%
    19:00 +25°C° 0 mm 1 m/s 716 mmHg 90%
    20:00 +23°C° 0 mm 0 m/s 717 mmHg 88%
    21:00 +22°C° 0 mm 0 m/s 717 mmHg 87%
    22:00 +22°C° 0 mm 0 m/s 716 mmHg 86%
    23:00 +22°C° 0 mm 0 m/s 716 mmHg 86%
    Arată mai mult